This is the latest recevied weather packets stored in our database for station/object KD0KHX-10. If no packets are shown the sender has not sent any weather packets the latest 1 day(s).
| Time | Temp. | Humidity | Pressure | Rain* | Wind** | Luminosity | Snow |
|---|---|---|---|---|---|---|---|
| 1777995573 | 6.11° C | 71% | 1008.8 hPa | 0.25 mm | 3.13 m/s, 94° | - | - |
| 1777995003 | 5.56° C | 71% | 1009.1 hPa | 0.25 mm | 3.13 m/s, 92° | - | - |
| 1777994703 | 5.56° C | 71% | 1009.1 hPa | 0.25 mm | 3.58 m/s, 90° | - | - |
| 1777994406 | 5.56° C | 71% | 1009 hPa | 0.25 mm | 4.02 m/s, 89° | - | - |
| 1777994237 | 5.56° C | 70% | 1008.9 hPa | 0.25 mm | 3.58 m/s, 87° | - | - |
| 1777993803 | 5.56° C | 69% | 1008.8 hPa | 0.25 mm | 4.02 m/s, 84° | - | - |
| 1777993772 | 5.56° C | 69% | 1008.8 hPa | 0.25 mm | 4.02 m/s, 84° | - | - |
| 1777993203 | 5.56° C | 68% | 1008.8 hPa | 0 mm | 3.58 m/s, 75° | - | - |
| 1777993172 | 5.56° C | 68% | 1008.8 hPa | 0 mm | 3.58 m/s, 74° | - | - |
| 1777992603 | 5.56° C | 68% | 1008.8 hPa | 0 mm | 3.58 m/s, 64° | - | - |
| 1777992303 | 5.56° C | 68% | 1008.8 hPa | 0 mm | 3.58 m/s, 66° | - | - |
| 1777992003 | 5.56° C | 68% | 1008.7 hPa | 0 mm | 4.02 m/s, 69° | - | - |
| 1777991703 | 5.56° C | 69% | 1008.7 hPa | 0 mm | 4.02 m/s, 68° | - | - |
| 1777991673 | 5.56° C | 69% | 1008.7 hPa | 0 mm | 4.02 m/s, 68° | - | - |
| 1777991237 | 5.56° C | 69% | 1008.8 hPa | 0 mm | 4.47 m/s, 63° | - | - |
| 1777990803 | 5.56° C | 70% | 1008.7 hPa | 0 mm | 4.47 m/s, 61° | - | - |
| 1777990637 | 5.56° C | 71% | 1008.7 hPa | 0 mm | 4.47 m/s, 58° | - | - |
| 1777990473 | 5.56° C | 71% | 1008.7 hPa | 0 mm | 4.47 m/s, 56° | - | - |
| 1777989903 | 5.56° C | 73% | 1008.6 hPa | 0 mm | 4.92 m/s, 46° | - | - |
| 1777989603 | 5.56° C | 75% | 1008.6 hPa | 0 mm | 5.36 m/s, 42° | - | - |
| 1777989303 | 5.56° C | 76% | 1008.6 hPa | 0 mm | 5.81 m/s, 41° | - | - |
| 1777989003 | 5.56° C | 77% | 1008.5 hPa | 0 mm | 5.81 m/s, 41° | - | - |
| 1777988703 | 6.11° C | 77% | 1008.5 hPa | 0 mm | 4.92 m/s, 43° | - | - |
| 1777988403 | 6.11° C | 77% | 1008.4 hPa | 0 mm | 4.02 m/s, 41° | - | - |
| 1777988103 | 6.11° C | 77% | 1008.4 hPa | 0 mm | 2.68 m/s, 42° | - | - |
* Rain latest hour (hover to see other rain measurements)
** Current wind speed in m/s (hover to see current wind gust speed)